Regional Weather Roundup
Issued by NWS

Home | Current Version | Previous Version | Graphics & Text | Print | Product List | Glossary On
Versions: 1 2 3 4 5 6 7 8 9 10 11 12 13 14 15 16 17 18 19 20 21 22 23 24 25 26 27 28 29 30 31 32 33 34 35 36 37 38 39 40 41 42 43 44 45 46 47 48 49 50
000
ASUS43 KMPX 092001
RWRMN
WEATHER ROUNDUP FOR MINNESOTA
NATIONAL WEATHER SERVICE TWIN CITIES/CHANHASSEN MN
200 PM CST TUE FEB 09 2016


NOTE: "FAIR" INDICATES FEW OR NO CLOUDS BELOW 12,000 FEET WITH NO
SIGNIFICANT WEATHER AND/OR OBSTRUCTIONS TO VISIBILITY. N/A MEANS
CURRENT SKY AND/OR WEATHER CONDITIONS ARE NOT AVAILABLE.

MNZ060>063-068>070-092100-
   Twin Cities Metro

CITY           SKY/WX    TMP DP  RH WIND       PRES   REMARKS
TWIN CITIES    SUNNY     16   0  49 NW18G30   30.08F WCI   0
ST PAUL        SUNNY     16   0  49 NW23G32   30.09F WCI  -2
CRYSTAL        SUNNY     15   0  51 N20G28    30.09F WCI  -2
BLAINE         SUNNY     18   1  49 N21G28    30.08F WCI   1
LAKEVILLE      SUNNY     14   1  57 NW16G22   30.06F WCI  -2
EDEN PRAIRIE   SUNNY     15   0  51 N20G29    30.08S WCI  -2
SOUTH ST PAUL  SUNNY     17   0  46 NW14G20   30.07F WCI   3
LAKE ELMO      FAIR      18   1  49 NW15      30.07S WCI   3
$$
MNZ001>005-007-008-013>017-022>024-027-028-092100-
   Northwest Minnesota

CITY           SKY/WX    TMP DP  RH WIND       PRES   REMARKS
BEMIDJI        SUNNY      6  -2  68 NW9       30.16S WCI  -8
HALLOCK        SUNNY      7   0  72 N13       30.29F WCI  -9
ROSEAU         SUNNY      7   0  72 W9        30.24S WCI  -7
WARROAD        SUNNY      7  -2  66 NW8       30.22S WCI  -6
THIEF RVR FALL SUNNY      9  -2  61 N13       30.24S WCI  -7
CROOKSTON      SUNNY      9   3  78 N15       30.28F WCI  -8
FOSSTON        SUNNY     12   1  62 NW9       30.21S WCI   0
DETROIT LAKES  SUNNY     10   5  79 NW16      30.20R WCI  -7
MOORHEAD       SUNNY     12   7  79 N14       30.26S WCI  -3
PARK RAPIDS    SUNNY     12  -1  56 NW16      30.13F WCI  -5
MAHNOMEN       FAIR       9   1  72 N9        30.21F WCI  -5
$$
MNZ006-009>011-018-025>026-092100-
   North Central Minnesota

CITY           SKY/WX    TMP DP  RH WIND       PRES   REMARKS
BAUDETTE       SUNNY      4  -5  66 NW14      30.18S WCI -14
FLAG ISLAND    SUNNY      5  -2  72 NW13      30.21R WCI -12
INTL FALLS     SUNNY      5  -6  60 NW14      30.13F WCI -12
WASKISH        SUNNY      9  -2  61 NW9       30.17S WCI  -5
LONGVILLE      SUNNY      7  -4  61 W8        30.13F WCI  -6
GRAND RAPIDS   SUNNY      7  -4  61 NW18      30.08F WCI -12
ORR            SUNNY      5  -8  56 NW10G18   30.06S WCI -10
COOK           SUNNY      7  -6  56 NW7G16    30.07S WCI  -5
WALKER         FAIR       6  -3  64 NW12      30.14F WCI  -9
$$
MNZ012-019>021-037-092100-
   Northeast Minnesota

CITY           SKY/WX    TMP DP  RH WIND       PRES   REMARKS
DULUTH         SUNNY      9  -5  53 NW21G26   29.99F WCI -11
ELY            MOSUNNY    3  -2  78 NW14G20   30.02S WCI -15
HIBBING        SUNNY      5  -4  66 NW16      30.06F WCI -14
EVELETH        SUNNY      9  -4  56 N14G22    30.05F WCI  -8
DULUTH HARBOR  SUNNY     14   0  52 NW17      30.08S WCI  -3
TWO HARBORS    SUNNY     12   0  57 NW9G21    29.99S WCI   0
SILVER BAY     SUNNY     12  -2  52 W9G16     29.98S WCI   0
G MARAIS ARPRT PTSUNNY    3  -8  60 NW10G23   29.89F HAZE    WCI -12
$$
MNZ029>031-032-039>041-046>048-054>057-064-092100-
   West Central Minnesota

CITY           SKY/WX    TMP DP  RH WIND       PRES   REMARKS
FERGUS FALLS   CLOUDY    12   5  73 N17G24    30.24F WCI  -5
WHEATON        PTSUNNY   18  10  73 NW12G20   30.25F WCI   5
MORRIS         CLOUDY    16   7  67 NW18G24   30.19F WCI  -1
ALEXANDRIA     SUNNY     14   1  56 N16       30.15F WCI  -2
ELBOW LAKE     CLOUDY    13   5  71 W13G21    30.20S HAZE    WCI  -1
WADENA         SUNNY     12   1  62 N10       30.14F WCI  -1
GLENWOOD       SUNNY     14   3  62 NW17      30.15F WCI  -3
APPLETON       CLOUDY    18   9  68 NW17      30.21F WCI   2
BENSON         CLOUDY    16   7  67 N17G25    30.19F WCI   0
ORTONVILLE     CLOUDY    16   7  67 N14       30.22F WCI   1
MADISON        CLOUDY    19   9  63 NW21      30.22F WCI   3
WILLMAR        FAIR      18   9  68 NW20      30.17F WCI   1
$$
MNZ033>034-036-042>043-049>051-058-059-092100-
   Central Minnesota

CITY           SKY/WX    TMP DP  RH WIND       PRES   REMARKS
ST CLOUD       SUNNY     14   1  56 NW14G22   30.13F WCI  -1
SAUK CENTRE    FAIR      14   1  57 NW15      30.15F WCI  -2
PAYNESVILLE    SUNNY     14   2  61 NW14G23   30.16S WCI  -1
PINE RIVER     SUNNY      9  -2  61 N12       30.15F WCI  -6
BRAINERD       SUNNY     10  -2  58 N15       30.12F WCI  -7
STAPLES        SUNNY     12   0  57 N9        30.14F WCI   0
LONG PRAIRIE   FAIR      12   1  62 NW14      30.15F WCI  -3
LITTLE FALLS   SUNNY     14  -2  48 NW7G16    30.14F WCI   4
LITCHFIELD     SUNNY     16   5  62 NW17G25   30.14F WCI   0
BUFFALO        SUNNY     16   2  54 NW12      30.13F WCI   2
MAPLE LAKE     SUNNY     15   3  58 NW17G23   30.14S WCI  -1
$$
MNZ037-044-045-052-053-092100-
   East Central Minnesota

CITY           SKY/WX    TMP DP  RH WIND       PRES   REMARKS
PRINCETON      SUNNY     16   1  53 NW16G22   30.10S WCI   0
MORA           SUNNY     12   0  57 NW17      30.10S WCI  -5
CAMBRIDGE      SUNNY     14   1  57 NW13G26   30.08R WCI   0
RUSH CITY      SUNNY     15  -2  48 N14G21    30.08S WCI   0
MOOSE LAKE     SUNNY     14  -4  44 NW14G21   30.05S WCI  -1
HINCKLEY       FAIR      14   0  52 NW16      30.06F WCI  -2
CLOQUET        SUNNY     10  -6  48 NW18G26   30.02S WCI  -8
MCGREGOR       SUNNY     12  -2  52 NW15G21   30.09S WCI  -4
$$
MNZ071>073-080-081-089-090-097-098-092100-
   Southwest Minnesota

CITY           SKY/WX    TMP DP  RH WIND       PRES   REMARKS
MONTEVIDEO     CLOUDY    18   9  68 N17       30.21F WCI   2
GRANITE FALLS  CLOUDY    18   9  69 NW21      30.21F WCI   1
CANBY          CLOUDY    22  12  66 W15       30.22F WCI   8
MARSHALL       CLOUDY    16   8  71 N18       30.18F WCI   0
REDWOOD FALLS  SUNNY     18   6  59 NW16G30   30.16F WCI   3
OLIVIA         SUNNY     19   9  63 NW18G26   30.16F WCI   4
PIPESTONE      SUNNY     19   1  45 N20G28    30.16S WCI   4
WINDOM         SUNNY     16   7  67 NW25      30.12F WCI  -3
WORTHINGTON    CLOUDY    16   3  57 NW23      30.15F WCI  -2
JACKSON        SUNNY     16   5  62 NW24G30   30.12F WCI  -3
TRACY          SUNNY     17   9  71 N20       30.17F WCI   0
SLAYTON        CLOUDY    15   8  72 NW17G26   30.15F WCI  -1
$$
MNZ065>067-074>077-082>085-091>093-092100-
   South Central Minnesota

CITY           SKY/WX    TMP DP  RH WIND       PRES   REMARKS
MANKATO        SUNNY     16   3  57 NW20G28   30.10F WCI  -1
NEW ULM        SUNNY     16   5  62 NW21      30.13S WCI  -2
ST JAMES       MOSUNNY   18  10  73 NW25      30.14F WCI  -1
FAIRMONT       SUNNY     16   5  62 NW21      30.10F WCI  -2
GLENCOE        SUNNY     16   6  64 NW20      30.12F WCI  -1
FARIBAULT      SUNNY     16   1  53 NW14G24   30.07F WCI   1
OWATONNA       SUNNY     12   1  62 NW20      30.05F WCI  -6
WASECA         SUNNY     14   5  67 NW15      30.09F WCI  -1
$$
MNZ078>079-086>088-094>096-092100-
   Southeast Minnesota

CITY           SKY/WX    TMP DP  RH WIND       PRES   REMARKS
ROCHESTER      SUNNY     11   2  67 NW24      29.99F WCI  -9
RED WING       SUNNY     16  -2  45 NW18      30.04F WCI  -1
STANTON        SUNNY     17   2  52 NW18      30.05F WCI   0
DODGE CENTER   MOSUNNY   14   1  57 NW23G32   30.00F WCI  -5
WINONA         SUNNY     18   3  53 NW20      30.02F WCI   1
AUSTIN         SUNNY     12   1  62 NW20G29   30.02F WCI  -6
PRESTON        SUNNY     11   0  59 NW20      29.99F WCI  -7
$$
ABBREVIATIONS USED IN REMARKS
   TC - TEMPERATURES IN CELSIUS
  WCI - WIND CHILL INDEX
   HX - HEAT INDEX
  VSB - VISIBILITY
$$



USA.gov is the U.S. government's official web portal to all federal, state and local government web resources and services.